map of TUN home
Great Circle Mapper logo
TUN - Airport
Location
City:  Tunis, Tunisia
Name:Carthage International Airport
ICAO / IATA:DTTA / TUN

Details
Type:Airport (Aerodrome, Airfield)
Use:Public/Civil, International (customs port of entry)
Latitude:3651'04"N (36.851111)
Longitude:1013'37"E (10.226944)
Elevation:22 ft (7 m)
Variation:2.14E (WMM2015 magnetic declination)
0.10 annual change
Runways:2
Longest:10499 × 148 ft (3200 × 45 m), paved

Time
Time Zone:UTC+1 (DST+2)

Weather
METAR:DTTA 291300Z 28020G33KT 250V310 9999 SCT026 19/10 Q1018 NOSIG

Related Locations
Nearby:
Farthest:CHT: 11839 mi / 19052 km
Waitangi [Tuuta], Chatham Islands, NZ

Find:

   beyond  
but within

Other Information
Maps:
NOTAMs:
Links:
Sources:

  
flag of Tunisia   

Airport Diagram

Airport diagram for TUN

Airport diagram (OBSOLETE) from NGA

Sectional Chart

Flight Planning
at skyvector.com

Satellite Image

Google Maps Satellite View

 

Copyright © 2004-2015 Karl L. Swartz. All rights reserved.
The Great Circle Mapper name and logo are trademarks of the Great Circle Mapper.
All other trademarks mentioned herein belong to their respective owners.
Please see credits for attibutions and further copyright information.

  Follow gcmap on Facebook Follow gcmap on Twitter Follow gcmap on Google+

hCard Microformat

Geo Microformat